Location: M.A.R.S.Observatory
(35.4031°N, 81.5481°W)
Time: 03:48:19

SL-8 R/B - Visible Passes

Search period start: 04 October 2015 00:00
Search period end: 14 October 2015 00:00
Orbit: 658 x 669 km, 48.4° (Epoch: 02 October)

Date Brightness Start Highest point End Pass type
(mag) Time Alt. Az. Time Alt. Az. Time Alt. Az.
04 Oct 5.3 19:54:25 10° WNW 19:58:45 33° SW 20:03:01 10° SSE visible
05 Oct 6.5 20:27:50 10° WSW 20:29:45 12° SW 20:31:24 10° SSW visible
07 Oct 6.8 19:48:36 10° WSW 19:49:50 11° SW 19:50:48 10° SW visible
